Terug naar catalogus

CZ-6A LOWER FAIRING HALF

ActiefPO
NORAD 65548·DEBRIS·🇨🇳 China
Deze satellietnaam is nog niet bevestigd door officiële bronnen.

Gelanceerd Sep 6, 2025 vanaf Taiyuan Satellite Launch Center

Loading…

Volgende Passages (komende 24 uur)

TLE

VersSource: Space-Track

Epoch: Sep 14, 2026, 16:26 UTC

1 65548U 25199E   26257.68477677  .00000204  00000-0  75392-4 0  9994
2 65548  85.9950 359.8516 0013571 145.8802 214.3265 14.27219108 53161

Volg CZ-6A LOWER FAIRING HALF in realtime met AllMySat

Download on the App Store